Lapse_Rate
6.1 6.4 6.0 6.8 7.0 6.8 6.7 6.7 7.0 6.6 6.4 6.4 6.2 5.9 6.2 6.7 7.1 6.6 6.4 6.5 6.4 6.4 6.3 6.3 6.4 6.5 6.6 6.5 6.4 6.5 6.4 6.4 6.3 6.2 6.0 6.0 5.9 5.9 5.8 5.9 5.9 5.8 5.6
6.0 6.2 6.0 6.4 7.0 6.9 6.9 6.8 6.5 6.5 6.4 6.3 6.2 5.4 5.5 6.0 6.6 6.2 6.1 6.2 6.5 6.5 6.5 6.3 6.5 6.6 6.3 6.4 6.4 6.4 6.5 6.5 6.3 6.2 6.1 6.2 6.0 6.0 6.0 5.8 5.9 5.8 5.8
6.1 6.2 6.0 6.4 6.8 7.0 6.9 6.7 6.6 6.5 6.2 6.2 5.8 5.7 5.8 5.4 5.9 5.7 5.8 5.8 6.1 6.3 6.4 6.5 6.4 6.1 6.2 6.3 6.3 6.4 6.3 6.1 6.1 6.3 6.3 6.4 6.1 5.8 5.9 6.0 6.1 6.0 6.0
6.3 6.4 6.1 6.4 6.6 6.9 6.8 6.5 6.3 6.3 6.3 5.5 5.7 6.2 6.1 6.2 5.9 6.2 6.0 6.1 6.1 6.4 6.3 6.1 6.1 5.9 6.0 6.3 5.9 5.7 5.7 5.8 5.9 6.0 6.1 6.0 6.0 6.0 5.9 6.0 5.8 5.6 5.9
6.2 6.4 6.6 6.6 6.6 6.8 6.7 6.5 6.1 6.5 6.2 6.1 6.0 6.5 6.4 6.1 6.0 6.3 6.5 6.7 6.7 6.9 6.7 6.2 6.1 5.8 5.8 5.7 5.6 5.3 5.3 5.3 5.6 5.3 5.0 5.7 6.1 6.0 6.0 5.9 5.8 5.8 5.3
6.4 6.0 6.3 6.6 6.6 6.5 6.7 6.5 6.1 6.0 6.4 6.4 6.7 6.9 6.5 6.5 6.5 6.3 6.5 6.7 6.6 6.5 6.2 5.5 5.8 5.9 5.3 5.1 5.5 5.5 5.4 5.2 5.4 5.5 5.4 5.3 5.1 5.7 5.3 5.2 5.6 5.1 5.7
6.0 6.4 6.8 6.7 6.6 6.6 6.7 6.6 6.6 6.5 6.6 6.7 6.7 6.8 6.6 6.5 6.5 6.5 6.4 6.3 6.3 6.3 6.1 5.9 6.0 5.8 5.6 5.5 5.7 5.4 5.4 5.0 5.6 5.6 5.6 5.4 5.1 5.3 5.3 5.2 5.3 5.2 5.8
6.9 6.7 6.6 6.9 7.0 7.1 7.0 6.8 6.9 6.7 6.7 6.9 6.8 6.5 6.3 6.2 6.1 6.2 6.4 6.5 6.4 6.0 5.6 5.4 5.9 5.9 5.5 5.7 5.9 5.6 5.5 5.5 5.5 5.4 5.1 5.0 5.0 5.1 5.2 5.1 4.8 5.0 5.7
6.9 6.8 6.6 6.5 6.9 7.0 7.0 6.7 6.8 6.5 6.6 6.6 6.6 6.5 6.2 5.8 5.5 5.6 5.5 5.7 5.8 6.1 6.2 5.8 5.5 5.3 5.1 5.2 5.2 5.4 5.4 4.8 5.3 5.5 5.4 5.2 5.5 5.1 5.2 5.2 5.2 5.2 5.5
6.8 6.7 6.5 6.5 6.5 6.6 6.6 6.5 6.3 6.1 6.2 6.4 6.5 6.3 5.9 5.7 5.5 5.6 5.5 5.5 5.6 5.7 5.6 5.5 5.3 5.3 5.3 5.0 5.1 5.2 5.1 4.8 4.9 5.1 4.8 4.9 5.4 5.3 5.3 5.5 5.5 5.3 5.5
6.7 6.7 6.4 6.4 6.4 6.6 6.6 6.4 6.4 6.3 6.2 6.4 6.1 5.8 5.7 5.6 5.6 5.4 5.4 5.5 5.3 5.2 5.0 4.9 4.8 5.0 5.3 5.2 5.0 5.0 4.9 4.9 4.9 5.0 5.1 5.4 5.6 5.6 5.7 5.8 5.8 5.7 6.0
6.7 6.6 6.4 6.5 6.7 6.7 6.6 6.6 6.6 6.6 6.5 6.0 5.8 5.7 5.5 5.6 5.5 5.4 5.2 5.1 5.0 5.0 5.1 4.9 4.5 5.2 5.4 5.3 5.3 5.4 5.3 5.2 5.2 5.1 5.2 5.0 5.4 5.6 5.3 5.4 5.7 5.7 6.6
6.6 6.7 6.4 6.3 6.4 6.3 6.5 6.4 6.4 6.5 6.4 5.9 5.9 5.9 5.7 5.5 5.4 5.4 5.3 5.4 5.3 5.4 5.4 5.8 5.8 5.7 5.5 5.3 5.5 5.5 5.6 5.6 5.3 5.5 5.5 5.6 5.6 5.6 5.6 5.7 5.9 6.1 6.3
7.1 6.6 6.3 6.1 6.4 6.4 6.5 6.6 6.5 6.3 6.0 5.9 5.9 6.0 5.9 5.8 5.6 5.7 5.5 5.7 5.8 6.1 6.4 6.1 6.0 5.9 5.9 5.7 5.8 5.9 5.8 5.7 5.8 5.8 5.8 5.8 5.9 5.9 6.0 6.0 6.0 6.0 6.1
7.0 7.3 6.8 6.4 6.5 6.8 6.8 6.6 6.6 6.6 6.3 6.2 6.1 6.1 6.0 5.9 6.0 6.0 6.0 6.2 6.3 6.5 6.6 6.4 6.1 5.9 5.9 6.1 6.1 6.2 5.8 5.7 5.8 6.0 6.0 6.0 6.1 6.1 6.1 6.1 6.0 6.0 5.9
6.8 7.0 7.2 7.1 7.2 7.3 7.1 6.7 6.7 6.6 6.5 6.5 6.4 6.4 6.5 6.3 6.4 6.5 6.7 6.8 6.7 6.5 6.5 6.4 6.6 6.3 6.0 6.0 6.0 5.9 5.8 5.9 5.9 6.0 5.9 6.0 6.2 6.2 6.2 6.1 6.1 6.1 6.1
7.3 7.2 7.3 7.3 7.3 7.2 7.0 6.9 6.8 6.8 6.7 6.7 6.7 6.6 6.7 6.7 6.7 6.7 6.6 6.5 6.4 6.3 6.2 6.2 6.2 6.2 6.0 5.9 5.8 5.7 5.8 5.9 5.9 5.9 6.0 6.1 6.4 6.4 6.3 6.2 6.2 6.3 6.3
7.7 7.7 7.6 7.6 7.5 7.5 7.4 7.4 7.3 7.2 7.0 6.9 6.9 6.9 6.9 6.7 6.6 6.5 6.4 6.3 6.2 6.1 6.1 6.1 6.0 5.9 5.8 5.8 5.8 5.8 5.8 5.9 5.9 6.0 6.2 6.4 6.6 6.6 6.5 6.5 6.4 6.5 6.6
7.5 7.5 7.3 7.3 7.4 7.4 7.3 7.2 7.4 7.5 7.3 7.0 6.9 6.7 6.7 6.5 6.4 6.3 6.3 6.1 6.0 5.9 5.8 5.7 5.6 5.5 5.5 5.7 5.7 5.7 5.8 5.7 5.9 5.9 6.1 6.4 6.6 6.6 6.7 6.5 6.5 6.7 6.7
7.6 7.6 7.6 7.4 7.3 7.2 7.1 7.1 7.0 6.9 6.8 6.8 6.7 6.5 6.3 6.2 6.2 6.2 5.9 5.8 5.6 5.5 5.4 5.4 5.5 5.6 5.7 5.7 5.8 5.8 5.7 5.7 5.6 5.7 5.8 6.3 6.4 6.3 6.4 6.6 6.6 6.5 6.6
7.0 7.1 7.2 7.2 7.1 7.0 6.9 6.9 6.8 6.7 6.6 6.5 6.3 6.2 6.1 6.1 6.0 5.8 5.7 5.7 5.5 5.5 5.5 5.6 5.6 5.8 5.9 5.8 6.0 6.3 6.0 5.7 5.7 5.6 5.7 5.9 6.0 5.8 6.1 6.4 6.3 6.2 6.3
6.8 6.6 6.7 6.7 6.6 6.7 6.7 6.7 6.5 6.4 6.3 6.2 6.1 6.1 6.0 5.9 5.8 5.7 5.7 5.6 5.6 5.7 5.9 5.9 6.0 6.0 5.9 5.9 6.1 6.3 6.2 5.9 5.7 5.5 5.1 5.3 4.6 4.6 5.3 5.4 5.5 5.6 5.7
6.8 6.8 6.6 6.4 6.5 6.5 6.6 6.7 6.6 6.6 6.5 6.3 6.2 6.0 5.9 5.9 5.9 5.8 5.7 5.5 5.7 5.8 5.7 5.4 5.1 5.3 5.2 5.1 5.6 5.7 5.7 5.5 5.5 5.5 4.8 4.2 3.9 4.1 4.6 4.9 5.0 5.1 5.3
6.4 6.4 6.5 6.6 6.6 6.6 6.6 6.6 6.7 6.6 6.5 6.3 6.1 5.9 5.8 5.7 5.6 5.4 5.2 5.2 5.2 5.2 5.4 5.6 5.2 5.4 5.6 5.2 4.9 5.0 5.1 5.2 5.3 5.0 4.6 4.1 4.1 4.6 4.4 4.6 5.0 5.0 5.3
6.2 6.1 6.1 6.2 6.2 6.3 6.3 6.3 6.3 6.3 6.4 6.3 6.2 5.8 5.4 5.4 5.4 5.5 5.4 5.1 5.3 5.5 5.7 6.0 6.0 5.8 5.9 5.7 5.6 5.3 5.1 5.2 5.3 4.7 4.5 4.7 4.7 4.8 5.2 5.2 4.9 5.0 5.4
6.1 6.1 6.0 5.9 5.9 5.9 6.0 5.9 5.9 6.0 6.0 5.8 5.3 5.4 5.3 5.5 5.3 5.3 5.5 5.1 5.3 5.5 6.0 6.1 6.0 6.0 6.0 5.9 5.7 5.6 5.3 5.2 5.1 4.8 4.6 4.8 4.9 5.0 5.1 5.1 4.7 5.1 5.2
Wind_Speed
14 14 9 8 13 9 13 13 13 12 10 9 7 5 4 2 2 6 15 17 18 17 14 8 10 11 6 6 6 3 4 2 3 2 2 3 5 5 4 9 8 9 14
13 8 8 6 9 9 10 11 11 15 12 9 8 6 2 2 2 2 7 14 15 17 14 10 5 6 4 6 6 4 2 3 4 3 2 2 3 3 5 3 4 6 8
11 8 8 7 6 9 9 10 10 9 4 7 6 9 11 3 3 3 2 3 10 9 7 10 8 6 4 5 5 5 6 4 4 5 3 1 4 2 1 3 4 4 2
11 7 8 6 8 7 7 7 7 10 9 10 9 13 11 10 4 4 3 3 6 8 9 7 9 6 5 5 5 5 4 4 5 1 4 2 2 2 2 2 2 1 2
10 13 12 11 7 6 7 7 8 9 11 9 9 8 6 5 5 5 6 6 3 8 7 8 5 4 2 3 5 4 4 4 3 3 2 3 1 2 2 3 2 2 2
18 16 7 7 7 5 5 7 9 8 7 9 9 8 9 6 7 7 7 4 3 0 2 5 6 7 8 5 4 5 8 8 6 4 3 3 3 3 3 3 3 3 4
8 8 8 7 7 8 7 6 9 8 7 9 8 10 11 10 7 7 5 6 4 3 3 2 2 2 3 4 5 2 5 4 4 5 4 3 4 2 2 2 3 4 3
7 11 10 9 8 8 7 7 8 9 7 8 7 6 7 5 4 5 4 4 4 5 5 4 5 5 5 4 4 3 1 4 1 4 4 2 3 3 4 6 5 3 3
7 9 7 6 7 8 8 10 9 7 8 7 6 6 6 6 5 5 4 3 2 3 5 7 5 6 7 6 4 3 5 4 5 5 7 6 6 6 7 6 4 4 3
8 8 8 8 6 7 6 6 7 11 7 7 5 6 6 5 4 4 5 4 3 4 4 5 7 7 5 4 5 4 4 5 4 4 7 7 5 5 5 4 5 4 5
10 11 10 7 9 6 7 7 7 6 6 5 5 6 5 5 5 5 5 5 5 5 6 5 5 4 3 3 4 3 1 2 0 2 4 5 4 3 3 3 3 3 3
7 11 13 10 7 7 6 7 6 7 6 5 5 5 6 4 4 3 5 5 4 2 4 3 3 3 4 4 2 2 1 2 4 4 4 6 4 5 4 4 5 4 4
5 8 7 9 8 7 7 6 5 6 6 6 6 5 5 5 5 4 4 4 5 6 4 5 5 4 2 3 3 3 2 2 2 2 4 5 4 4 3 4 4 3 1
5 5 8 7 6 6 7 7 6 5 5 6 6 6 5 5 5 4 5 5 3 5 6 6 5 5 4 4 3 3 3 3 3 3 4 5 5 5 5 4 4 3 3
7 7 6 6 6 7 6 6 5 6 5 6 6 5 5 6 6 5 5 5 5 5 6 6 5 5 4 3 3 4 3 3 3 2 3 3 6 9 7 3 4 3 2
5 6 6 6 6 6 6 6 6 5 5 6 6 6 6 6 6 6 5 5 5 6 5 4 5 4 2 5 6 4 3 3 3 4 4 4 5 5 5 4 4 3 4
5 6 6 6 6 6 6 6 6 5 6 6 6 6 6 6 6 6 5 5 5 4 4 4 4 3 2 3 4 5 3 2 3 4 4 4 1 2 3 7 8 7 4
6 5 5 5 4 4 5 6 6 6 6 6 6 6 6 6 6 5 5 4 3 3 3 2 2 1 1 1 2 4 2 3 3 4 4 4 1 0 2 3 4 4 4
3 4 4 4 5 6 6 6 5 5 5 5 5 5 5 6 5 6 5 3 3 2 2 2 1 2 3 3 3 1 1 2 3 3 3 3 2 3 3 3 3 4 4
4 5 5 4 5 3 6 6 5 5 5 4 5 5 5 6 6 5 5 2 2 2 2 2 2 4 4 4 3 2 0 2 2 2 3 3 2 4 4 3 3 3 1
6 6 7 6 4 1 5 5 5 6 5 5 5 5 5 6 5 5 3 3 3 4 3 3 3 4 3 4 7 5 2 3 2 2 3 3 5 6 5 5 4 4 5
6 6 6 5 4 4 4 5 6 4 5 6 6 5 5 3 4 6 4 3 3 3 3 3 3 3 4 6 7 9 9 6 3 3 3 3 7 6 6 5 7 7 7
4 4 5 5 4 5 3 4 2 3 5 5 5 5 4 4 4 4 4 3 4 4 3 3 3 3 3 3 9 11 11 9 4 3 6 8 9 9 6 5 7 6 4
4 2 4 4 3 4 4 3 2 3 5 5 4 4 4 4 4 3 3 3 3 3 3 3 4 3 3 3 3 4 4 8 5 5 4 7 9 7 5 4 3 3 3
2 2 3 3 2 2 3 2 2 2 3 3 3 3 3 3 3 3 3 3 3 3 3 3 3 3 5 4 8 8 5 4 4 3 1 2 2 3 3 3 3 3 3
2 3 3 3 2 1 0 1 0 1 3 2 2 2 2 2 3 2 2 6 7 8 10 11 7 4 11 11 10 13 15 14 12 3 3 4 5 5 4 4 4 3 5
Wind_Direction
295 288 244 179 162 161 165 158 161 176 165 156 143 141 139 128 127 172 163 165 166 171 164 163 159 171 165 173 171 149 169 186 164 119 305 272 245 245 233 234 224 215 216
283 298 215 161 159 164 165 159 178 168 168 164 168 141 101 35 136 260 171 172 167 173 167 161 167 173 165 169 171 158 148 192 185 149 101 297 312 275 240 231 240 229 218
273 308 230 167 167 155 162 176 168 157 155 145 142 151 161 126 201 149 185 164 141 146 155 160 157 173 180 188 184 169 169 193 211 205 155 161 244 322 327 230 240 254 221
276 278 245 158 172 188 159 149 146 155 144 187 159 187 181 178 197 161 176 138 128 142 169 176 137 177 199 193 194 187 172 161 200 215 231 196 168 203 319 342 29 326 189
263 267 231 173 169 162 179 138 134 131 145 160 172 176 145 155 135 139 136 132 153 140 150 166 165 225 184 216 188 185 233 213 198 166 145 200 202 192 188 262 260 22 19
234 219 220 126 117 116 128 136 142 146 140 136 137 139 148 144 144 145 150 148 117 309 179 168 157 178 185 209 228 219 208 213 217 201 183 190 185 198 194 232 230 206 225
186 158 157 137 136 147 143 134 135 152 148 139 139 139 138 144 151 156 170 161 168 198 211 192 165 180 189 145 141 269 276 214 209 201 205 184 224 180 199 184 254 225 201
159 166 169 162 158 148 140 134 138 136 150 141 139 141 147 156 158 151 152 163 176 168 161 165 167 188 202 189 190 167 271 284 296 270 268 220 235 212 227 236 222 250 216
173 166 150 154 148 147 157 155 153 143 157 153 145 152 145 149 159 154 159 161 172 183 181 181 186 203 218 200 207 192 207 198 237 242 239 233 249 242 236 229 218 204 203
175 156 166 162 168 164 146 139 153 164 168 154 148 153 164 153 156 168 183 180 210 233 220 219 211 199 200 200 192 221 231 217 239 244 240 235 239 243 242 239 235 242 225
168 174 171 179 172 144 147 145 139 146 161 162 143 143 160 169 174 175 184 190 196 200 191 200 202 226 191 219 225 234 238 206 20 319 313 297 308 295 284 253 245 232 209
161 171 173 164 162 160 146 159 146 145 151 136 131 147 139 162 173 175 162 167 157 153 151 167 128 120 114 103 108 141 92 315 300 297 291 286 295 282 285 264 239 231 194
114 130 127 156 157 152 146 141 148 140 129 137 146 142 146 153 131 137 136 125 134 123 105 108 110 89 60 90 79 99 90 61 337 332 310 298 299 286 269 259 259 237 188
61 113 116 121 119 126 135 136 127 126 124 129 137 143 149 128 138 137 123 117 117 116 109 83 82 82 71 55 50 35 32 15 12 355 332 334 311 288 279 264 251 238 204
62 75 97 111 117 119 119 112 119 136 135 126 133 142 135 132 124 121 108 105 99 82 78 96 84 65 67 37 23 12 343 312 296 305 329 326 316 302 286 279 258 210 189
88 99 104 110 115 122 123 124 133 134 131 132 142 136 138 127 123 109 115 111 96 90 100 97 104 92 58 30 15 5 307 309 291 286 284 290 314 325 313 288 282 219 178
131 128 137 143 148 154 146 147 144 127 130 132 142 142 139 130 137 143 140 118 112 96 92 82 82 78 31 15 27 16 356 357 312 291 286 278 297 360 26 57 60 61 57
124 126 134 132 135 132 125 128 139 145 148 153 155 149 141 143 146 136 126 112 95 106 98 83 77 107 307 350 308 321 327 308 299 291 287 271 253 84 109 75 59 43 30
117 135 138 135 144 148 146 140 141 150 153 162 157 157 153 152 151 149 142 117 112 110 126 121 177 219 239 228 265 86 326 322 323 315 291 263 214 186 152 135 124 82 40
67 97 100 84 109 134 149 144 159 160 182 174 179 170 168 169 166 156 153 130 122 160 159 199 207 245 243 274 247 132 34 268 258 289 285 257 228 205 192 176 167 161 155
67 62 69 82 58 82 159 167 164 199 202 180 172 172 175 172 170 155 144 146 158 165 190 225 247 275 261 270 247 235 211 240 244 247 261 267 250 236 216 190 187 201 157
74 75 82 71 40 34 165 177 197 219 185 171 169 170 168 164 152 155 151 158 180 207 226 228 250 244 247 253 257 249 224 225 220 235 245 265 256 247 240 228 218 207 156
75 70 85 76 41 32 63 136 168 146 148 147 155 157 157 159 157 159 174 181 196 204 214 228 242 248 244 243 260 258 248 236 224 229 238 233 235 233 239 234 242 171 148
74 79 91 75 46 30 48 70 90 117 128 140 156 163 171 176 180 189 185 190 201 211 217 230 257 266 263 252 241 257 265 242 254 223 244 232 232 203 201 230 248 158 170
54 73 105 113 93 52 63 52 95 147 147 157 170 181 187 190 203 220 212 222 224 197 213 224 221 236 258 246 228 225 222 209 221 193 213 211 210 205 210 224 232 210 205
53 54 43 48 39 65 50 296 308 161 162 179 188 202 205 212 214 224 270 246 242 249 251 244 225 242 249 262 254 245 236 225 218 205 208 213 208 212 209 215 222 208 222